Location: Nashville
(36.1660°N, 86.7840°W)
Time: 03:41:27
(UTC-06:00)

Explorer 7 - All Passes

Search period start: 28 January 2022 00:00
Search period end: 07 February 2022 00:00
Orbit: 483 x 674 km, 50.3° (Epoch: 27 January)

Date Brightness Start Highest point End Pass type
(mag) Time Alt. Az. Time Alt. Az. Time Alt. Az.
28 Jan - 06:32:30 10° S 06:35:03 17° SE 06:37:41 10° E daylight
28 Jan - 08:11:15 10° WSW 08:15:05 56° NW 08:19:11 10° NE daylight
28 Jan - 09:53:40 10° NW 09:56:20 16° NNW 09:59:04 10° NNE daylight
28 Jan - 11:36:16 10° NNW 11:38:16 13° N 11:40:19 10° NNE daylight
28 Jan - 13:16:12 10° NNW 13:19:59 26° NNE 13:23:56 10° E daylight
28 Jan - 14:56:13 10° NW 15:00:49 71° SW 15:05:36 10° SE daylight
28 Jan - 16:39:58 10° WSW 16:40:45 10° SW 16:41:32 10° SW daylight
29 Jan - 06:35:20 10° SSW 06:38:42 30° SE 06:42:13 10° ENE daylight
29 Jan - 08:15:25 10° W 08:19:03 36° NNW 08:22:53 10° NE daylight
29 Jan - 09:58:22 10° NW 10:00:31 14° N 10:02:45 10° NNE daylight
29 Jan - 11:40:10 10° NNW 11:42:30 14° NNE 11:44:55 10° NE daylight
29 Jan - 13:19:53 10° NW 13:24:00 35° NNE 13:28:20 10° E daylight
29 Jan - 15:00:13 10° WNW 15:04:36 43° SW 15:09:09 10° SSE daylight
30 Jan - 06:38:42 10° SSW 06:42:25 53° SE 06:46:20 10° ENE daylight
30 Jan - 08:19:46 10° W 08:23:05 25° NNW 08:26:32 10° NNE daylight
30 Jan - 10:03:00 10° NNW 10:04:46 12° N 10:06:34 10° NNE daylight
30 Jan - 11:43:54 10° NNW 11:46:42 16° NNE 11:49:36 10° ENE daylight
30 Jan - 13:23:35 10° NW 13:27:58 51° NE 13:32:34 10° ESE daylight
30 Jan - 15:04:26 10° WNW 15:08:18 27° SW 15:12:19 10° S daylight
31 Jan - 06:42:25 10° SW 06:46:13 86° NW 06:50:14 10° NE daylight
31 Jan - 08:24:18 10° WNW 08:27:10 19° NNW 08:30:10 10° NNE daylight
31 Jan - 10:07:25 10° NNW 10:09:00 12° N 10:10:39 10° NNE daylight
31 Jan - 11:47:34 10° NNW 11:50:50 20° NNE 11:54:14 10° ENE daylight
31 Jan - 13:27:21 10° NW 13:31:51 79° NE 13:36:35 10° SE daylight
31 Jan - 15:09:07 10° W 15:11:59 16° SW 15:14:53 10° SSW daylight
01 Feb - 05:07:21 10° S 05:10:01 18° SE 05:12:43 10° E visible
01 Feb - 06:46:22 10° WSW 06:50:06 51° NW 06:54:01 10° NE daylight
01 Feb - 08:28:58 10° NW 08:31:20 15° NNW 08:33:46 10° NNE daylight
01 Feb - 10:11:29 10° NNW 10:13:15 12° N 10:15:04 10° NNE daylight
01 Feb - 11:51:13 10° NNW 11:54:54 26° NNE 11:58:47 10° E daylight
01 Feb - 13:31:13 10° WNW 13:35:40 65° SW 13:40:20 10° SE daylight
02 Feb - 05:10:18 10° SSW 05:13:40 32° SE 05:17:10 10° ENE visible
02 Feb - 06:50:34 10° W 06:54:03 32° NNW 06:57:42 10° NE daylight
02 Feb - 08:33:41 10° NW 08:35:32 13° N 08:37:24 10° NNE daylight
02 Feb - 10:15:18 10° NNW 10:17:29 14° NNE 10:19:43 10° NE daylight
02 Feb - 11:54:52 10° NW 11:58:55 36° NNE 12:03:10 10° E daylight
02 Feb - 13:35:14 10° WNW 13:39:26 39° SW 13:43:49 10° SSE daylight
03 Feb - 05:13:43 10° SW 05:17:23 59° SE 05:21:14 10° ENE visible
03 Feb - 06:54:58 10° W 06:58:05 23° NNW 07:01:19 10° NNE daylight
03 Feb - 08:38:22 10° NNW 08:39:46 11° N 08:41:11 10° NNE daylight
03 Feb - 10:18:58 10° NNW 10:21:39 16° NNE 10:24:26 10° ENE daylight
03 Feb - 11:58:34 10° NW 12:02:50 54° NE 12:07:22 10° ESE daylight
03 Feb - 13:39:31 10° WNW 13:43:08 24° SW 13:46:53 10° S daylight
04 Feb - 03:40:18 10° SE 03:41:21 11° SE 03:42:24 10° ESE visible
04 Feb - 05:17:28 10° SW 05:21:12 78° NW 05:25:06 10° NE visible
04 Feb - 06:59:32 10° WNW 07:02:11 17° NNW 07:04:54 10° NNE daylight
04 Feb - 08:42:45 10° NNW 08:44:00 11° N 08:45:17 10° NNE daylight
04 Feb - 10:22:36 10° NNW 10:25:47 20° NNE 10:29:04 10° ENE daylight
04 Feb - 12:02:20 10° NW 12:06:42 85° NE 12:11:19 10° SE daylight
04 Feb - 13:44:22 10° W 13:46:48 14° SW 13:49:15 10° SSW daylight
05 Feb - 03:42:11 10° S 03:44:57 20° SE 03:47:46 10° E visible
05 Feb - 05:21:27 10° WSW 05:25:05 46° NNW 05:28:51 10° NE visible
05 Feb - 07:04:15 10° NW 07:06:19 14° NNW 07:08:27 10° NNE daylight
05 Feb - 08:46:43 10° NNW 08:48:14 12° N 08:49:48 10° NNE daylight
05 Feb - 10:26:13 10° NNW 10:29:49 27° NNE 10:33:36 10° E daylight
05 Feb - 12:06:13 10° WNW 12:10:30 59° SW 12:15:03 10° SE daylight
06 Feb - 03:45:12 10° SSW 03:48:37 35° SE 03:52:07 10° ENE visible
06 Feb - 05:25:42 10° W 05:29:03 30° NNW 05:32:31 10° NNE visible
06 Feb - 07:09:02 10° NNW 07:10:32 12° N 07:12:03 10° NNE daylight
06 Feb - 08:50:24 10° NNW 08:52:27 13° NNE 08:54:31 10° NE daylight
06 Feb - 10:29:52 10° NW 10:33:48 37° NNE 10:37:58 10° E daylight
06 Feb - 12:10:17 10° WNW 12:14:15 35° SW 12:18:26 10° SSE daylight
